Time,TemperatureF,DewpointF,PressureIn,WindDirection,WindDirectionDegrees,WindSpeedMPH,WindSpeedGustMPH,Humidity,HourlyPrecipIn,Conditions,Clouds,dailyrainin,SoftwareType,DateUTC
2013-04-09 00:00:00,64.1,50.4,30.10,SSW,211,3.0,7.0,61,0.00,,SKC,0.00,VWS V14.01,2013-04-09 04:00:00,
2013-04-09 00:05:00,64.0,50.3,30.10,South,180,2.0,10.0,61,0.00,,SKC,0.00,VWS V14.01,2013-04-09 04:05:00,
2013-04-09 00:10:00,64.1,50.4,30.10,South,173,4.0,10.0,61,0.00,,SKC,0.00,VWS V14.01,2013-04-09 04:10:00,
2013-04-09 00:15:00,64.1,50.4,30.10,SSW,198,3.0,10.0,61,0.00,,SKC,0.00,VWS V14.01,2013-04-09 04:15:00,
2013-04-09 00:20:00,64.0,50.7,30.10,South,180,3.0,10.0,62,0.00,,SKC,0.00,VWS V14.01,2013-04-09 04:20:00,
2013-04-09 00:25:00,63.9,50.6,30.10,South,183,3.0,10.0,62,0.00,,SKC,0.00,VWS V14.01,2013-04-09 04:25:00,
2013-04-09 00:30:00,63.8,50.5,30.10,SW,214,4.0,4.0,62,0.00,,SKC,0.00,VWS V14.01,2013-04-09 04:30:00,
2013-04-09 00:35:00,63.7,50.5,30.10,SSW,201,3.0,4.0,62,0.00,,SKC,0.00,VWS V14.01,2013-04-09 04:35:00,
2013-04-09 00:40:00,63.6,50.8,30.11,SSW,197,1.0,5.0,63,0.00,,SKC,0.00,VWS V14.01,2013-04-09 04:40:00,
2013-04-09 00:45:00,63.5,50.7,30.11,South,174,1.0,5.0,63,0.00,,SKC,0.00,VWS V14.01,2013-04-09 04:45:00,
2013-04-09 00:50:00,63.3,50.5,30.11,SSW,211,0.0,5.0,63,0.00,,SKC,0.00,VWS V14.01,2013-04-09 04:50:00,
2013-04-09 00:55:00,63.2,50.4,30.11,South,184,2.0,5.0,63,0.00,,SKC,0.00,VWS V14.01,2013-04-09 04:55:00,
2013-04-09 01:00:00,63.0,50.7,30.11,South,188,0.0,0.0,64,0.00,,SKC,0.00,VWS V14.01,2013-04-09 05:00:00,
2013-04-09 01:05:00,62.5,50.2,30.11,South,173,0.0,2.0,64,0.00,,SKC,0.00,VWS V14.01,2013-04-09 05:05:00,
2013-04-09 01:10:00,62.1,50.2,30.11,South,173,1.0,2.0,65,0.00,,SKC,0.00,VWS V14.01,2013-04-09 05:10:00,
2013-04-09 01:15:00,61.7,50.2,30.11,South,173,0.0,2.0,66,0.00,,SKC,0.00,VWS V14.01,2013-04-09 05:15:00,
2013-04-09 01:20:00,61.3,50.3,30.11,South,173,0.0,2.0,67,0.00,,SKC,0.00,VWS V14.01,2013-04-09 05:20:00,
2013-04-09 01:25:00,61.1,50.1,30.11,South,173,0.0,2.0,67,0.00,,SKC,0.00,VWS V14.01,2013-04-09 05:25:00,
2013-04-09 01:30:00,60.8,50.2,30.11,South,173,0.0,0.0,68,0.00,,SKC,0.00,VWS V14.01,2013-04-09 05:30:00,
2013-04-09 01:35:00,60.8,50.2,30.11,South,180,0.0,1.0,68,0.00,,SKC,0.00,VWS V14.01,2013-04-09 05:35:00,
2013-04-09 01:40:00,60.7,50.1,30.11,South,190,0.0,2.0,68,0.00,,SKC,0.00,VWS V14.01,2013-04-09 05:40:00,
2013-04-09 01:45:00,60.5,49.9,30.11,South,190,0.0,2.0,68,0.00,,SKC,0.00,VWS V14.01,2013-04-09 05:45:00,
2013-04-09 01:50:00,60.5,50.3,30.11,SSW,204,0.0,2.0,69,0.00,,SKC,0.00,VWS V14.01,2013-04-09 05:50:00,
2013-04-09 01:55:00,60.6,50.4,30.11,South,188,1.0,2.0,69,0.00,,SKC,0.00,VWS V14.01,2013-04-09 05:55:00,
2013-04-09 02:00:00,60.7,50.5,30.11,South,184,0.0,0.0,69,0.00,,SKC,0.00,VWS V14.01,2013-04-09 06:00:00,
2013-04-09 02:05:00,60.6,50.4,30.11,South,184,1.0,2.0,69,0.00,,SKC,0.00,VWS V14.01,2013-04-09 06:05:00,
2013-04-09 02:10:00,60.7,50.5,30.11,South,176,1.0,3.0,69,0.00,,SKC,0.00,VWS V14.01,2013-04-09 06:10:00,
2013-04-09 02:15:00,60.5,50.3,30.11,South,177,0.0,3.0,69,0.00,,SKC,0.00,VWS V14.01,2013-04-09 06:15:00,
2013-04-09 02:20:00,60.1,49.9,30.11,South,177,0.0,3.0,69,0.00,,SKC,0.00,VWS V14.01,2013-04-09 06:20:00,
2013-04-09 02:25:00,59.6,49.8,30.11,South,177,0.0,3.0,70,0.00,,SKC,0.00,VWS V14.01,2013-04-09 06:25:00,
2013-04-09 02:30:00,59.1,49.7,30.11,South,177,0.0,0.0,71,0.00,,SKC,0.00,VWS V14.01,2013-04-09 06:30:00,
2013-04-09 02:35:00,58.6,49.6,30.11,South,177,0.0,0.0,72,0.00,,SKC,0.00,VWS V14.01,2013-04-09 06:35:00,
2013-04-09 02:40:00,57.7,49.5,30.11,South,177,0.0,0.0,74,0.00,,SKC,0.00,VWS V14.01,2013-04-09 06:40:00,
2013-04-09 02:45:00,57.1,49.6,30.11,South,177,0.0,0.0,76,0.00,,SKC,0.00,VWS V14.01,2013-04-09 06:45:00,
2013-04-09 02:50:00,56.8,49.0,30.11,South,177,1.0,1.0,75,0.00,,SKC,0.00,VWS V14.01,2013-04-09 06:50:00,
2013-04-09 02:55:00,56.0,49.2,30.10,ESE,115,0.0,2.0,78,0.00,,SKC,0.00,VWS V14.01,2013-04-09 06:55:00,
2013-04-09 03:00:00,55.8,49.0,30.11,ESE,116,0.0,0.0,78,0.00,,SKC,0.00,VWS V14.01,2013-04-09 07:00:00,
2013-04-09 03:05:00,55.7,49.3,30.10,ESE,116,0.0,2.0,79,0.00,,SKC,0.00,VWS V14.01,2013-04-09 07:05:00,
2013-04-09 03:10:00,55.4,48.7,30.10,ESE,116,0.0,2.0,78,0.00,,SKC,0.00,VWS V14.01,2013-04-09 07:10:00,
2013-04-09 03:15:00,55.1,48.7,30.10,ESE,116,0.0,2.0,79,0.00,,SKC,0.00,VWS V14.01,2013-04-09 07:15:00,
2013-04-09 03:20:00,54.7,48.7,30.10,ESE,116,0.0,2.0,80,0.00,,SKC,0.00,VWS V14.01,2013-04-09 07:20:00,
2013-04-09 03:25:00,54.5,48.8,30.10,ESE,115,0.0,2.0,81,0.00,,SKC,0.00,VWS V14.01,2013-04-09 07:25:00,
2013-04-09 03:30:00,54.1,48.4,30.11,ESE,116,0.0,0.0,81,0.00,,SKC,0.00,VWS V14.01,2013-04-09 07:30:00,
2013-04-09 03:36:00,53.6,48.2,30.11,ESE,115,0.0,0.0,82,0.00,,SKC,0.00,VWS V14.01,2013-04-09 07:36:00,
2013-04-09 03:40:00,53.1,48.1,30.11,ESE,116,0.0,0.0,83,0.00,,SKC,0.00,VWS V14.01,2013-04-09 07:40:00,
2013-04-09 03:45:00,52.8,48.1,30.11,ESE,116,0.0,0.0,84,0.00,,SKC,0.00,VWS V14.01,2013-04-09 07:45:00,
2013-04-09 03:50:00,52.6,48.2,30.11,ESE,116,0.0,0.0,85,0.00,,SKC,0.00,VWS V14.01,2013-04-09 07:50:00,
2013-04-09 03:55:00,52.3,47.9,30.11,ESE,116,0.0,0.0,85,0.00,,SKC,0.00,VWS V14.01,2013-04-09 07:55:00,
2013-04-09 04:00:00,52.0,47.6,30.11,ESE,115,0.0,0.0,85,0.00,,SKC,0.00,VWS V14.01,2013-04-09 08:00:00,
2013-04-09 04:01:00,51.9,47.5,30.11,ESE,115,0.0,0.0,85,0.00,,SKC,0.00,VWS V14.01,2013-04-09 08:01:00,
2013-04-09 04:06:00,51.7,47.3,30.12,ESE,115,0.0,0.0,85,0.00,,SKC,0.00,VWS V14.01,2013-04-09 08:06:00,
2013-04-09 04:11:00,51.4,47.7,30.11,ESE,115,0.0,0.0,87,0.00,,SKC,0.00,VWS V14.01,2013-04-09 08:11:00,
2013-04-09 04:16:00,51.2,47.5,30.11,ESE,115,0.0,1.0,87,0.00,,SKC,0.00,VWS V14.01,2013-04-09 08:16:00,
2013-04-09 04:21:00,50.9,47.2,30.11,ESE,116,0.0,1.0,87,0.00,,SKC,0.00,VWS V14.01,2013-04-09 08:21:00,
2013-04-09 04:26:00,50.5,46.8,30.12,WNW,301,0.0,2.0,87,0.00,,SKC,0.00,VWS V14.01,2013-04-09 08:26:00,
2013-04-09 04:30:00,50.3,46.9,30.12,WNW,301,0.0,2.0,88,0.00,,SKC,0.00,VWS V14.01,2013-04-09 08:30:00,
2013-04-09 04:31:00,50.3,47.2,30.12,WNW,301,0.0,1.0,89,0.00,,SKC,0.00,VWS V14.01,2013-04-09 08:31:00,
2013-04-09 04:36:00,49.8,46.4,30.12,NW,323,0.0,2.0,88,0.00,,SKC,0.00,VWS V14.01,2013-04-09 08:36:00,
2013-04-09 04:42:00,49.5,46.4,30.12,NW,323,0.0,2.0,89,0.00,,SKC,0.00,VWS V14.01,2013-04-09 08:42:00,
2013-04-09 04:47:00,49.3,46.2,30.12,NW,323,0.0,2.0,89,0.00,,SKC,0.00,VWS V14.01,2013-04-09 08:47:00,
2013-04-09 04:52:00,49.4,46.9,30.12,NW,323,0.0,2.0,91,0.00,,SKC,0.00,VWS V14.01,2013-04-09 08:52:00,
2013-04-09 04:57:00,49.4,46.9,30.12,NW,323,0.0,2.0,91,0.00,,SKC,0.00,VWS V14.01,2013-04-09 08:57:00,
2013-04-09 05:00:00,49.4,46.6,30.12,NW,323,0.0,2.0,90,0.00,,SKC,0.00,VWS V14.01,2013-04-09 09:00:00,
2013-04-09 05:02:00,49.4,46.6,30.13,NW,323,0.0,0.0,90,0.00,,SKC,0.00,VWS V14.01,2013-04-09 09:02:00,
2013-04-09 05:07:00,49.2,46.1,30.13,WSW,240,0.0,1.0,89,0.00,,SKC,0.00,VWS V14.01,2013-04-09 09:07:00,
2013-04-09 05:12:00,49.0,46.2,30.13,WSW,240,0.0,1.0,90,0.00,,SKC,0.00,VWS V14.01,2013-04-09 09:12:00,
2013-04-09 05:17:00,48.9,46.4,30.13,WSW,240,0.0,1.0,91,0.00,,SKC,0.00,VWS V14.01,2013-04-09 09:17:00,
2013-04-09 05:22:00,48.8,46.3,30.13,WSW,240,0.0,1.0,91,0.00,,SKC,0.00,VWS V14.01,2013-04-09 09:22:00,
2013-04-09 05:27:00,48.7,46.2,30.13,WSW,240,0.0,1.0,91,0.00,,SKC,0.00,VWS V14.01,2013-04-09 09:27:00,
2013-04-09 05:30:00,48.6,46.1,30.13,WSW,240,0.0,1.0,91,0.00,,SKC,0.00,VWS V14.01,2013-04-09 09:30:00,
2013-04-09 05:32:00,48.6,46.1,30.13,WSW,240,0.0,0.0,91,0.00,,SKC,0.00,VWS V14.01,2013-04-09 09:32:00,
2013-04-09 05:37:00,48.4,46.2,30.13,WSW,240,0.0,1.0,92,0.00,,SKC,0.00,VWS V14.01,2013-04-09 09:37:00,
2013-04-09 05:42:00,48.3,46.1,30.13,WSW,240,0.0,1.0,92,0.00,,SKC,0.00,VWS V14.01,2013-04-09 09:42:00,
2013-04-09 05:47:00,48.1,45.9,30.13,WSW,240,0.0,1.0,92,0.00,,SKC,0.00,VWS V14.01,2013-04-09 09:47:00,
2013-04-09 05:52:00,48.0,45.8,30.14,WSW,240,0.0,1.0,92,0.00,,SKC,0.00,VWS V14.01,2013-04-09 09:52:00,
2013-04-09 05:57:00,47.7,45.5,30.14,WSW,240,0.0,1.0,92,0.00,,SKC,0.00,VWS V14.01,2013-04-09 09:57:00,
2013-04-09 06:00:00,47.6,45.4,30.14,WSW,240,0.0,1.0,92,0.00,,SKC,0.00,VWS V14.01,2013-04-09 10:00:00,
2013-04-09 06:02:00,47.5,45.6,30.14,WSW,240,0.0,0.0,93,0.00,,SKC,0.00,VWS V14.01,2013-04-09 10:02:00,
2013-04-09 06:07:00,47.5,45.6,30.14,WSW,240,0.0,1.0,93,0.00,,SKC,0.00,VWS V14.01,2013-04-09 10:07:00,
2013-04-09 06:12:00,47.1,44.9,30.14,WSW,240,0.0,1.0,92,0.00,,SKC,0.00,VWS V14.01,2013-04-09 10:12:00,
2013-04-09 06:18:00,46.9,45.0,30.14,WSW,240,0.0,1.0,93,0.00,,SKC,0.00,VWS V14.01,2013-04-09 10:18:00,
2013-04-09 06:22:00,47.1,45.5,30.15,WSW,240,0.0,1.0,94,0.00,,SKC,0.00,VWS V14.01,2013-04-09 10:22:00,
2013-04-09 06:27:00,47.1,45.5,30.15,WSW,240,0.0,1.0,94,0.00,,SKC,0.00,VWS V14.01,2013-04-09 10:27:00,
2013-04-09 06:30:00,47.1,45.5,30.15,WSW,240,0.0,1.0,94,0.00,,SKC,0.00,VWS V14.01,2013-04-09 10:30:00,
2013-04-09 06:32:00,46.9,45.0,30.15,WSW,240,0.0,0.0,93,0.00,,SKC,0.00,VWS V14.01,2013-04-09 10:32:00,
2013-04-09 06:37:00,46.6,44.7,30.15,WSW,240,0.0,1.0,93,0.00,,SKC,0.00,VWS V14.01,2013-04-09 10:37:00,
2013-04-09 06:42:00,46.3,44.4,30.15,WSW,240,0.0,1.0,93,0.00,,SKC,0.00,VWS V14.01,2013-04-09 10:42:00,
2013-04-09 06:48:00,46.1,44.5,30.16,WSW,240,0.0,1.0,94,0.00,,SKC,0.00,VWS V14.01,2013-04-09 10:48:00,
2013-04-09 06:53:00,46.2,44.6,30.16,WSW,240,0.0,1.0,94,0.00,,SKC,0.00,VWS V14.01,2013-04-09 10:53:00,
2013-04-09 06:58:00,46.2,44.8,30.16,WSW,240,0.0,1.0,95,0.00,,SKC,0.00,VWS V14.01,2013-04-09 10:58:00,
2013-04-09 07:00:00,46.3,45.0,30.16,WSW,240,0.0,1.0,95,0.00,,SKC,0.00,VWS V14.01,2013-04-09 11:00:00,
2013-04-09 07:03:00,46.5,45.2,30.16,WSW,240,0.0,1.0,95,0.00,,SKC,0.00,VWS V14.01,2013-04-09 11:03:00,
2013-04-09 07:08:00,46.4,45.0,30.17,WSW,240,0.0,1.0,95,0.00,,SKC,0.00,VWS V14.01,2013-04-09 11:08:00,
2013-04-09 07:13:00,46.4,45.0,30.17,WSW,240,0.0,1.0,95,0.00,,SKC,0.00,VWS V14.01,2013-04-09 11:13:00,
2013-04-09 07:18:00,46.4,45.0,30.17,WSW,240,0.0,1.0,95,0.00,,SKC,0.00,VWS V14.01,2013-04-09 11:18:00,
2013-04-09 07:23:00,46.2,44.6,30.17,WSW,240,1.0,1.0,94,0.00,,SKC,0.00,VWS V14.01,2013-04-09 11:23:00,
2013-04-09 07:28:00,46.3,45.0,30.17,WSW,238,0.0,1.0,95,0.00,,SKC,0.00,VWS V14.01,2013-04-09 11:28:00,
2013-04-09 07:30:00,46.3,45.0,30.17,WSW,238,0.0,1.0,95,0.00,,SKC,0.00,VWS V14.01,2013-04-09 11:30:00,
2013-04-09 07:33:00,46.3,45.0,30.17,WSW,239,0.0,0.0,95,0.00,,SKC,0.00,VWS V14.01,2013-04-09 11:33:00,
2013-04-09 07:38:00,46.4,45.0,30.17,WSW,239,0.0,0.0,95,0.00,,SKC,0.00,VWS V14.01,2013-04-09 11:38:00,
2013-04-09 07:43:00,46.4,45.0,30.17,WSW,239,0.0,0.0,95,0.00,,SKC,0.00,VWS V14.01,2013-04-09 11:43:00,
2013-04-09 07:48:00,46.4,45.0,30.18,WSW,239,0.0,0.0,95,0.00,,SKC,0.00,VWS V14.01,2013-04-09 11:48:00,
2013-04-09 07:52:00,46.4,45.0,30.18,WSW,239,0.0,0.0,95,0.00,,SKC,0.00,VWS V14.01,2013-04-09 11:52:00,
2013-04-09 07:57:00,46.5,45.2,30.18,WSW,239,0.0,0.0,95,0.00,,SKC,0.00,VWS V14.01,2013-04-09 11:57:00,
2013-04-09 08:00:00,46.5,45.2,30.18,WSW,239,0.0,0.0,95,0.00,,SKC,0.00,VWS V14.01,2013-04-09 12:00:00,
2013-04-09 08:02:00,46.5,44.9,30.18,WSW,238,0.0,0.0,94,0.00,,SKC,0.00,VWS V14.01,2013-04-09 12:02:00,
2013-04-09 08:07:00,46.8,45.5,30.19,WSW,240,1.0,1.0,95,0.00,,SKC,0.00,VWS V14.01,2013-04-09 12:07:00,
2013-04-09 08:13:00,47.2,45.8,30.19,WSW,240,1.0,1.0,95,0.00,,SKC,0.00,VWS V14.01,2013-04-09 12:13:00,
2013-04-09 08:17:00,47.5,46.1,30.19,WSW,240,1.0,1.0,95,0.00,,SKC,0.00,VWS V14.01,2013-04-09 12:17:00,
2013-04-09 08:22:00,47.9,46.5,30.19,WSW,249,0.0,2.0,95,0.00,,SKC,0.00,VWS V14.01,2013-04-09 12:22:00,
2013-04-09 08:27:00,48.4,46.8,30.19,WSW,249,0.0,2.0,94,0.00,,SKC,0.00,VWS V14.01,2013-04-09 12:27:00,
2013-04-09 08:30:00,48.7,47.0,30.20,WSW,250,0.0,2.0,94,0.00,,SKC,0.00,VWS V14.01,2013-04-09 12:30:00,
2013-04-09 08:32:00,48.9,47.2,30.20,WSW,249,0.0,0.0,94,0.00,,SKC,0.00,VWS V14.01,2013-04-09 12:32:00,
2013-04-09 08:38:00,49.5,47.6,30.20,WSW,249,0.0,0.0,93,0.00,,SKC,0.00,VWS V14.01,2013-04-09 12:38:00,
2013-04-09 08:43:00,50.1,48.2,30.20,WSW,249,0.0,0.0,93,0.00,,SKC,0.00,VWS V14.01,2013-04-09 12:43:00,
2013-04-09 08:47:00,50.9,48.7,30.20,WSW,249,0.0,1.0,92,0.00,,SKC,0.00,VWS V14.01,2013-04-09 12:47:00,
2013-04-09 08:53:00,51.7,48.9,30.20,WSW,249,0.0,1.0,90,0.00,,SKC,0.00,VWS V14.01,2013-04-09 12:53:00,
2013-04-09 08:58:00,52.6,49.5,30.20,WSW,248,0.0,1.0,89,0.00,,SKC,0.00,VWS V14.01,2013-04-09 12:58:00,
2013-04-09 09:00:00,53.1,49.7,30.20,WSW,248,0.0,1.0,88,0.00,,SKC,0.00,VWS V14.01,2013-04-09 13:00:00,
2013-04-09 09:03:00,53.6,50.1,30.20,WSW,248,0.0,0.0,88,0.00,,SKC,0.00,VWS V14.01,2013-04-09 13:03:00,
2013-04-09 09:08:00,54.5,50.1,30.20,WSW,248,0.0,1.0,85,0.00,,SKC,0.00,VWS V14.01,2013-04-09 13:08:00,
2013-04-09 09:13:00,55.4,50.7,30.20,WSW,247,0.0,1.0,84,0.00,,SKC,0.00,VWS V14.01,2013-04-09 13:13:00,
2013-04-09 09:18:00,56.3,50.9,30.19,NE,41,0.0,2.0,82,0.00,,SKC,0.00,VWS V14.01,2013-04-09 13:18:00,
2013-04-09 09:23:00,57.0,51.2,30.19,NE,41,0.0,2.0,81,0.00,,SKC,0.00,VWS V14.01,2013-04-09 13:23:00,
2013-04-09 09:28:00,57.7,51.6,30.19,NE,41,0.0,2.0,80,0.00,,SKC,0.00,VWS V14.01,2013-04-09 13:28:00,
2013-04-09 09:30:00,58.0,51.9,30.20,NE,41,1.0,2.0,80,0.00,,SKC,0.00,VWS V14.01,2013-04-09 13:30:00,
2013-04-09 09:33:00,58.3,51.8,30.19,NE,41,0.0,1.0,79,0.00,,SKC,0.00,VWS V14.01,2013-04-09 13:33:00,
2013-04-09 09:38:00,58.9,52.1,30.19,NE,41,1.0,1.0,78,0.00,,SKC,0.00,VWS V14.01,2013-04-09 13:38:00,
2013-04-09 09:43:00,59.6,52.0,30.19,SSW,197,0.0,1.0,76,0.00,,SKC,0.00,VWS V14.01,2013-04-09 13:43:00,
2013-04-09 09:48:00,60.1,52.2,30.19,SSW,210,0.0,2.0,75,0.00,,SKC,0.00,VWS V14.01,2013-04-09 13:48:00,
2013-04-09 09:53:00,60.7,52.4,30.20,SSW,213,0.0,2.0,74,0.00,,SKC,0.00,VWS V14.01,2013-04-09 13:53:00,
2013-04-09 09:58:00,61.2,52.5,30.20,SSW,212,0.0,2.0,73,0.00,,SKC,0.00,VWS V14.01,2013-04-09 13:58:00,
2013-04-09 10:00:00,61.4,52.3,30.20,SSW,211,1.0,2.0,72,0.00,,SKC,0.00,VWS V14.01,2013-04-09 14:00:00,
2013-04-09 10:03:00,61.7,52.6,30.20,SSW,211,0.0,1.0,72,0.00,,SKC,0.00,VWS V14.01,2013-04-09 14:03:00,
2013-04-09 10:08:00,62.5,53.4,30.20,NW,323,2.0,3.0,72,0.00,,SKC,0.00,VWS V14.01,2013-04-09 14:08:00,
2013-04-09 10:13:00,63.1,53.6,30.19,North,357,2.0,3.0,71,0.00,,SKC,0.00,VWS V14.01,2013-04-09 14:13:00,
2013-04-09 10:18:00,63.5,53.5,30.20,North,352,1.0,3.0,70,0.00,,SKC,0.00,VWS V14.01,2013-04-09 14:18:00,
2013-04-09 10:23:00,64.0,53.6,30.20,North,351,1.0,3.0,69,0.00,,SKC,0.00,VWS V14.01,2013-04-09 14:23:00,
2013-04-09 10:28:00,64.6,53.8,30.19,West,266,1.0,3.0,68,0.00,,SKC,0.00,VWS V14.01,2013-04-09 14:28:00,
2013-04-09 10:30:00,65.0,54.2,30.20,SW,229,1.0,3.0,68,0.00,,SKC,0.00,VWS V14.01,2013-04-09 14:30:00,
2013-04-09 10:33:00,65.4,53.8,30.20,NE,35,2.0,2.0,66,0.00,,SKC,0.00,VWS V14.01,2013-04-09 14:33:00,
2013-04-09 10:38:00,65.9,54.7,30.20,WSW,258,0.0,2.0,67,0.00,,SKC,0.00,VWS V14.01,2013-04-09 14:38:00,
2013-04-09 10:43:00,66.8,54.7,30.19,ENE,57,0.0,2.0,65,0.00,,SKC,0.00,VWS V14.01,2013-04-09 14:43:00,
2013-04-09 10:48:00,67.7,54.7,30.19,ENE,57,0.0,2.0,63,0.00,,SKC,0.00,VWS V14.01,2013-04-09 14:48:00,
2013-04-09 10:53:00,68.2,54.7,30.19,SSW,205,1.0,3.0,62,0.00,,SKC,0.00,VWS V14.01,2013-04-09 14:53:00,
2013-04-09 10:58:00,68.9,54.9,30.19,ENE,63,1.0,3.0,61,0.00,,SKC,0.00,VWS V14.01,2013-04-09 14:58:00,
2013-04-09 11:00:00,69.2,55.2,30.19,SSE,158,1.0,3.0,61,0.00,,SKC,0.00,VWS V14.01,2013-04-09 15:00:00,
2013-04-09 11:03:00,69.7,55.2,30.19,NNW,332,2.0,3.0,60,0.00,,SKC,0.00,VWS V14.01,2013-04-09 15:03:00,
2013-04-09 11:08:00,69.9,54.9,30.19,NNW,333,2.0,3.0,59,0.00,,SKC,0.00,VWS V14.01,2013-04-09 15:08:00,
2013-04-09 11:13:00,70.2,54.3,30.19,WNW,294,2.0,4.0,57,0.00,,SKC,0.00,VWS V14.01,2013-04-09 15:13:00,
2013-04-09 11:18:00,70.3,53.9,30.19,SW,219,2.0,4.0,56,0.00,,SKC,0.00,VWS V14.01,2013-04-09 15:18:00,
2013-04-09 11:23:00,70.6,52.7,30.19,SSW,207,1.0,5.0,53,0.00,,SKC,0.00,VWS V14.01,2013-04-09 15:23:00,
2013-04-09 11:28:00,71.0,53.5,30.19,SSW,207,0.0,5.0,54,0.00,,SKC,0.00,VWS V14.01,2013-04-09 15:28:00,
2013-04-09 11:30:00,71.2,53.7,30.18,SSW,205,0.0,5.0,54,0.00,,SKC,0.00,VWS V14.01,2013-04-09 15:30:00,
2013-04-09 11:33:00,71.6,54.1,30.19,NW,314,0.0,3.0,54,0.00,,SKC,0.00,VWS V14.01,2013-04-09 15:33:00,
2013-04-09 11:38:00,72.1,53.5,30.18,WSW,250,3.0,6.0,52,0.00,,SKC,0.00,VWS V14.01,2013-04-09 15:38:00,
2013-04-09 11:43:00,71.9,53.9,30.18,SW,223,2.0,6.0,53,0.00,,SKC,0.00,VWS V14.01,2013-04-09 15:43:00,
2013-04-09 11:48:00,72.2,54.1,30.18,SW,221,0.0,6.0,53,0.00,,SKC,0.00,VWS V14.01,2013-04-09 15:48:00,
2013-04-09 11:53:00,72.4,53.8,30.18,WSW,239,4.0,6.0,52,0.00,,SKC,0.00,VWS V14.01,2013-04-09 15:53:00,
2013-04-09 11:58:00,72.7,55.1,30.18,SW,226,3.0,6.0,54,0.00,,SKC,0.00,VWS V14.01,2013-04-09 15:58:00,
2013-04-09 12:00:00,73.0,54.9,30.18,WNW,300,0.0,6.0,53,0.00,,SKC,0.00,VWS V14.01,2013-04-09 16:00:00,
2013-04-09 12:03:00,73.5,54.3,30.18,South,188,3.0,4.0,51,0.00,,SKC,0.00,VWS V14.01,2013-04-09 16:03:00,
2013-04-09 12:08:00,73.3,54.1,30.18,SW,228,1.0,6.0,51,0.00,,SKC,0.00,VWS V14.01,2013-04-09 16:08:00,
2013-04-09 12:13:00,73.2,53.5,30.18,NNW,341,0.0,6.0,50,0.00,,SKC,0.00,VWS V14.01,2013-04-09 16:13:00,
2013-04-09 12:18:00,73.3,52.5,30.18,SSE,155,2.0,7.0,48,0.00,,SKC,0.00,VWS V14.01,2013-04-09 16:18:00,
2013-04-09 12:23:00,73.4,53.7,30.18,West,271,4.0,7.0,50,0.00,,SKC,0.00,VWS V14.01,2013-04-09 16:23:00,
2013-04-09 12:28:00,74.1,53.7,30.18,WSW,245,2.0,7.0,49,0.00,,SKC,0.00,VWS V14.01,2013-04-09 16:28:00,
2013-04-09 12:30:00,74.4,51.7,30.18,SSW,205,4.0,7.0,45,0.00,,SKC,0.00,VWS V14.01,2013-04-09 16:30:00,
2013-04-09 12:33:00,74.8,53.2,30.17,SW,218,3.0,4.0,47,0.00,,SKC,0.00,VWS V14.01,2013-04-09 16:33:00,
2013-04-09 12:38:00,75.0,52.8,30.17,SW,228,4.0,6.0,46,0.00,,SKC,0.00,VWS V14.01,2013-04-09 16:38:00,
2013-04-09 12:43:00,75.0,51.6,30.17,WNW,291,1.0,6.0,44,0.00,,SKC,0.00,VWS V14.01,2013-04-09 16:43:00,
2013-04-09 12:48:00,74.9,50.9,30.17,NNE,28,1.0,6.0,43,0.00,,SKC,0.00,VWS V14.01,2013-04-09 16:48:00,
2013-04-09 12:53:00,74.7,50.7,30.16,NNW,347,0.0,6.0,43,0.00,,SKC,0.00,VWS V14.01,2013-04-09 16:53:00,
2013-04-09 12:58:00,74.5,51.8,30.16,North,8,2.0,6.0,45,0.00,,SKC,0.00,VWS V14.01,2013-04-09 16:58:00,
2013-04-09 13:00:00,74.7,53.2,30.16,NNW,338,1.0,6.0,47,0.00,,SKC,0.00,VWS V14.01,2013-04-09 17:00:00,
2013-04-09 13:03:00,75.1,51.7,30.16,SW,228,2.0,4.0,44,0.00,,SKC,0.00,VWS V14.01,2013-04-09 17:03:00,
2013-04-09 13:08:00,76.3,53.4,30.16,West,278,1.0,5.0,45,0.00,,SKC,0.00,VWS V14.01,2013-04-09 17:08:00,
2013-04-09 13:13:00,77.5,51.3,30.15,South,186,4.0,5.0,40,0.00,,SKC,0.00,VWS V14.01,2013-04-09 17:13:00,
2013-04-09 13:18:00,77.1,50.3,30.15,West,264,0.0,7.0,39,0.00,,SKC,0.00,VWS V14.01,2013-04-09 17:18:00,
2013-04-09 13:23:00,77.0,50.9,30.15,SSW,205,3.0,7.0,40,0.00,,SKC,0.00,VWS V14.01,2013-04-09 17:23:00,
2013-04-09 13:28:00,77.5,52.0,30.15,SSW,208,1.0,7.0,41,0.00,,SKC,0.00,VWS V14.01,2013-04-09 17:28:00,
2013-04-09 13:30:00,77.7,52.2,30.15,SSW,198,3.0,7.0,41,0.00,,SKC,0.00,VWS V14.01,2013-04-09 17:30:00,
2013-04-09 13:33:00,77.8,51.6,30.15,SSW,197,4.0,5.0,40,0.00,,SKC,0.00,VWS V14.01,2013-04-09 17:33:00,
2013-04-09 13:38:00,78.4,52.1,30.14,SSE,163,3.0,5.0,40,0.00,,SKC,0.00,VWS V14.01,2013-04-09 17:38:00,
2013-04-09 13:43:00,78.8,52.5,30.14,ESE,115,1.0,5.0,40,0.00,,SKC,0.00,VWS V14.01,2013-04-09 17:43:00,
2013-04-09 13:48:00,79.1,52.0,30.14,WSW,252,2.0,7.0,39,0.00,,SKC,0.00,VWS V14.01,2013-04-09 17:48:00,
2013-04-09 13:53:00,79.2,50.7,30.14,SSW,203,0.0,7.0,37,0.00,,SKC,0.00,VWS V14.01,2013-04-09 17:53:00,
2013-04-09 13:58:00,80.0,52.8,30.14,SSW,210,6.0,9.0,39,0.00,,SKC,0.00,VWS V14.01,2013-04-09 17:58:00,
2013-04-09 14:00:00,79.7,52.6,30.14,SW,229,4.0,11.0,39,0.00,,SKC,0.00,VWS V14.01,2013-04-09 18:00:00,
2013-04-09 14:03:00,79.4,50.9,30.13,SW,225,0.0,5.0,37,0.00,,SKC,0.00,VWS V14.01,2013-04-09 18:03:00,
2013-04-09 14:08:00,79.6,53.2,30.13,WSW,237,6.0,10.0,40,0.00,,SKC,0.00,VWS V14.01,2013-04-09 18:08:00,
2013-04-09 14:13:00,79.2,52.1,30.13,East,82,2.0,10.0,39,0.00,,SKC,0.00,VWS V14.01,2013-04-09 18:13:00,
2013-04-09 14:18:00,79.5,53.1,30.13,SSW,208,4.0,10.0,40,0.00,,SKC,0.00,VWS V14.01,2013-04-09 18:18:00,
2013-04-09 14:23:00,79.7,53.3,30.12,South,181,2.0,10.0,40,0.00,,SKC,0.00,VWS V14.01,2013-04-09 18:23:00,
2013-04-09 14:28:00,79.9,54.1,30.12,SW,236,2.0,10.0,41,0.00,,SKC,0.00,VWS V14.01,2013-04-09 18:28:00,
2013-04-09 14:30:00,80.1,52.9,30.12,South,179,2.0,10.0,39,0.00,,SKC,0.00,VWS V14.01,2013-04-09 18:30:00,
2013-04-09 14:33:00,80.3,53.1,30.12,SSW,199,7.0,7.0,39,0.00,,SKC,0.00,VWS V14.01,2013-04-09 18:33:00,
2013-04-09 14:38:00,80.7,54.2,30.12,NNW,335,1.0,7.0,40,0.00,,SKC,0.00,VWS V14.01,2013-04-09 18:38:00,
2013-04-09 14:43:00,80.8,52.8,30.12,SSW,212,4.0,7.0,38,0.00,,SKC,0.00,VWS V14.01,2013-04-09 18:43:00,
2013-04-09 14:48:00,80.8,54.2,30.12,ENE,75,2.0,8.0,40,0.00,,SKC,0.00,VWS V14.01,2013-04-09 18:48:00,
2013-04-09 14:53:00,80.5,52.6,30.11,West,270,1.0,8.0,38,0.00,,SKC,0.00,VWS V14.01,2013-04-09 18:53:00,
2013-04-09 14:58:00,80.2,52.3,30.11,NW,311,4.0,8.0,38,0.00,,SKC,0.00,VWS V14.01,2013-04-09 18:58:00,
2013-04-09 15:00:00,79.7,52.6,30.11,SSW,208,5.0,8.0,39,0.00,,SKC,0.00,VWS V14.01,2013-04-09 19:00:00,
2013-04-09 15:03:00,79.4,52.3,30.11,NW,308,0.0,6.0,39,0.00,,SKC,0.00,VWS V14.01,2013-04-09 19:03:00,
2013-04-09 15:08:00,80.1,52.2,30.11,SW,215,3.0,6.0,38,0.00,,SKC,0.00,VWS V14.01,2013-04-09 19:08:00,
2013-04-09 15:13:00,79.9,54.1,30.10,South,172,4.0,6.0,41,0.00,,SKC,0.00,VWS V14.01,2013-04-09 19:13:00,
2013-04-09 15:18:00,80.6,56.1,30.10,SW,236,1.0,8.0,43,0.00,,SKC,0.00,VWS V14.01,2013-04-09 19:18:00,
2013-04-09 15:23:00,81.1,55.2,30.10,SSW,197,3.0,8.0,41,0.00,,SKC,0.00,VWS V14.01,2013-04-09 19:23:00,
2013-04-09 15:28:00,81.3,54.7,30.10,SSW,193,0.0,8.0,40,0.00,,SKC,0.00,VWS V14.01,2013-04-09 19:28:00,
2013-04-09 15:30:00,81.4,54.1,30.09,ENE,58,1.0,8.0,39,0.00,,SKC,0.00,VWS V14.01,2013-04-09 19:30:00,
2013-04-09 15:33:00,81.5,54.9,30.09,NNE,20,2.0,2.0,40,0.00,,SKC,0.00,VWS V14.01,2013-04-09 19:33:00,
2013-04-09 15:38:00,81.6,55.6,30.09,West,262,3.0,8.0,41,0.00,,SKC,0.00,VWS V14.01,2013-04-09 19:38:00,
2013-04-09 15:43:00,81.5,55.5,30.09,SSW,210,5.0,8.0,41,0.00,,SKC,0.00,VWS V14.01,2013-04-09 19:43:00,
2013-04-09 15:48:00,81.2,54.6,30.09,SW,225,2.0,8.0,40,0.00,,SKC,0.00,VWS V14.01,2013-04-09 19:48:00,
2013-04-09 15:53:00,81.7,55.7,30.08,SW,226,2.0,8.0,41,0.00,,SKC,0.00,VWS V14.01,2013-04-09 19:53:00,
2013-04-09 15:58:00,82.3,56.3,30.08,NNW,339,3.0,8.0,41,0.00,,SKC,0.00,VWS V14.01,2013-04-09 19:58:00,
2013-04-09 16:00:00,82.4,55.0,30.08,SSW,204,1.0,8.0,39,0.00,,SKC,0.00,VWS V14.01,2013-04-09 20:00:00,
2013-04-09 16:03:00,82.6,55.2,30.08,SSW,195,0.0,3.0,39,0.00,,SKC,0.00,VWS V14.01,2013-04-09 20:03:00,
2013-04-09 16:08:00,82.2,54.1,30.07,South,170,1.0,8.0,38,0.00,,SKC,0.00,VWS V14.01,2013-04-09 20:08:00,
2013-04-09 16:13:00,82.8,55.3,30.07,SSW,193,1.0,8.0,39,0.00,,SKC,0.00,VWS V14.01,2013-04-09 20:13:00,
2013-04-09 16:18:00,83.3,55.1,30.07,SE,145,1.0,8.0,38,0.00,,SKC,0.00,VWS V14.01,2013-04-09 20:18:00,
2013-04-09 16:23:00,83.4,55.2,30.06,SW,231,5.0,8.0,38,0.00,,SKC,0.00,VWS V14.01,2013-04-09 20:23:00,
2013-04-09 16:28:00,82.8,54.6,30.06,South,180,5.0,9.0,38,0.00,,SKC,0.00,VWS V14.01,2013-04-09 20:28:00,
2013-04-09 16:30:00,82.8,53.9,30.06,SSW,203,1.0,9.0,37,0.00,,SKC,0.00,VWS V14.01,2013-04-09 20:30:00,
2013-04-09 16:33:00,82.8,56.0,30.06,South,175,1.0,2.0,40,0.00,,SKC,0.00,VWS V14.01,2013-04-09 20:33:00,
2013-04-09 16:38:00,82.6,55.9,30.06,SW,224,4.0,8.0,40,0.00,,SKC,0.00,VWS V14.01,2013-04-09 20:38:00,
2013-04-09 16:43:00,82.8,55.3,30.06,SW,223,3.0,8.0,39,0.00,,SKC,0.00,VWS V14.01,2013-04-09 20:43:00,
2013-04-09 16:48:00,82.7,55.2,30.06,SSW,193,4.0,8.0,39,0.00,,SKC,0.00,VWS V14.01,2013-04-09 20:48:00,
2013-04-09 16:53:00,83.0,56.2,30.06,SSW,201,2.0,10.0,40,0.00,,SKC,0.00,VWS V14.01,2013-04-09 20:53:00,
2013-04-09 16:58:00,83.0,55.5,30.06,SSW,200,1.0,10.0,39,0.00,,SKC,0.00,VWS V14.01,2013-04-09 20:58:00,
2013-04-09 17:00:00,83.1,56.3,30.05,NE,45,2.0,10.0,40,0.00,,SKC,0.00,VWS V14.01,2013-04-09 21:00:00,
2013-04-09 17:03:00,83.1,55.6,30.05,West,277,2.0,6.0,39,0.00,,SKC,0.00,VWS V14.01,2013-04-09 21:03:00,
2013-04-09 17:08:00,83.1,56.3,30.06,South,191,2.0,9.0,40,0.00,,SKC,0.00,VWS V14.01,2013-04-09 21:08:00,
2013-04-09 17:14:00,83.5,56.0,30.05,SSW,193,4.0,9.0,39,0.00,,SKC,0.00,VWS V14.01,2013-04-09 21:14:00,
2013-04-09 17:19:00,83.1,54.9,30.05,SSW,206,4.0,9.0,38,0.00,,SKC,0.00,VWS V14.01,2013-04-09 21:19:00,
2013-04-09 17:24:00,83.4,55.2,30.05,South,177,3.0,9.0,38,0.00,,SKC,0.00,VWS V14.01,2013-04-09 21:24:00,
2013-04-09 17:29:00,83.3,56.5,30.05,South,174,3.0,9.0,40,0.00,,SKC,0.00,VWS V14.01,2013-04-09 21:29:00,
2013-04-09 17:30:00,83.6,56.8,30.05,SW,224,2.0,9.0,40,0.00,,SKC,0.00,VWS V14.01,2013-04-09 21:30:00,
2013-04-09 17:34:00,83.6,56.0,30.05,SSW,198,4.0,7.0,39,0.00,,SKC,0.00,VWS V14.01,2013-04-09 21:34:00,
2013-04-09 17:39:00,83.5,56.0,30.05,SSW,210,6.0,8.0,39,0.00,,SKC,0.00,VWS V14.01,2013-04-09 21:39:00,
2013-04-09 17:44:00,83.2,56.4,30.05,SSW,193,4.0,8.0,40,0.00,,SKC,0.00,VWS V14.01,2013-04-09 21:44:00,
2013-04-09 17:49:00,82.8,56.7,30.05,ESE,104,3.0,9.0,41,0.00,,SKC,0.00,VWS V14.01,2013-04-09 21:49:00,
2013-04-09 17:54:00,82.7,56.6,30.05,SSW,207,2.0,9.0,41,0.00,,SKC,0.00,VWS V14.01,2013-04-09 21:54:00,
2013-04-09 18:00:00,82.9,56.1,30.05,SSW,200,5.0,9.0,40,0.00,,SKC,0.00,VWS V14.01,2013-04-09 22:00:00,
2013-04-09 18:05:00,82.6,56.5,30.05,South,181,6.0,12.0,41,0.00,,SKC,0.00,VWS V14.01,2013-04-09 22:05:00,
2013-04-09 18:10:00,82.1,56.1,30.05,SE,126,4.0,12.0,41,0.00,,SKC,0.00,VWS V14.01,2013-04-09 22:10:00,
2013-04-09 18:15:00,81.4,56.1,30.05,South,186,5.0,12.0,42,0.00,,SKC,0.00,VWS V14.01,2013-04-09 22:15:00,
2013-04-09 18:20:00,81.3,56.0,30.06,SSW,195,3.0,12.0,42,0.00,,SKC,0.00,VWS V14.01,2013-04-09 22:20:00,
2013-04-09 18:25:00,81.5,56.2,30.05,SSE,167,4.0,12.0,42,0.00,,SKC,0.00,VWS V14.01,2013-04-09 22:25:00,
2013-04-09 18:30:00,81.4,56.1,30.06,South,176,3.0,12.0,42,0.00,,SKC,0.00,VWS V14.01,2013-04-09 22:30:00,
2013-04-09 18:35:00,81.5,56.2,30.05,SSE,148,6.0,7.0,42,0.00,,SKC,0.00,VWS V14.01,2013-04-09 22:35:00,
2013-04-09 18:40:00,81.0,56.4,30.06,SW,218,3.0,7.0,43,0.00,,SKC,0.00,VWS V14.01,2013-04-09 22:40:00,
2013-04-09 18:45:00,80.5,56.0,30.06,South,187,6.0,10.0,43,0.00,,SKC,0.00,VWS V14.01,2013-04-09 22:45:00,
2013-04-09 18:50:00,80.0,55.5,30.06,SSW,210,3.0,10.0,43,0.00,,SKC,0.00,VWS V14.01,2013-04-09 22:50:00,
2013-04-09 18:55:00,79.5,55.7,30.06,SSE,168,5.0,14.0,44,0.00,,SKC,0.00,VWS V14.01,2013-04-09 22:55:00,
2013-04-09 19:00:00,79.0,55.9,30.06,South,180,4.0,14.0,45,0.00,,SKC,0.00,VWS V14.01,2013-04-09 23:00:00,
2013-04-09 19:05:00,78.3,55.8,30.06,SW,230,11.0,11.0,46,0.00,,SKC,0.00,VWS V14.01,2013-04-09 23:05:00,
2013-04-09 19:10:00,77.5,55.7,30.06,South,179,4.0,11.0,47,0.00,,SKC,0.00,VWS V14.01,2013-04-09 23:10:00,
2013-04-09 19:15:00,76.8,55.7,30.06,SSW,194,2.0,11.0,48,0.00,,SKC,0.00,VWS V14.01,2013-04-09 23:15:00,
2013-04-09 19:20:00,76.1,55.6,30.06,SW,219,3.0,11.0,49,0.00,,SKC,0.00,VWS V14.01,2013-04-09 23:20:00,
2013-04-09 19:25:00,75.6,55.1,30.06,SSW,201,1.0,11.0,49,0.00,,SKC,0.00,VWS V14.01,2013-04-09 23:25:00,
2013-04-09 19:30:00,75.1,55.2,30.06,SSW,197,3.0,11.0,50,0.00,,SKC,0.00,VWS V14.01,2013-04-09 23:30:00,
2013-04-09 19:35:00,74.8,55.5,30.06,SW,231,1.0,7.0,51,0.00,,SKC,0.00,VWS V14.01,2013-04-09 23:35:00,
2013-04-09 19:40:00,74.4,55.1,30.06,WSW,243,2.0,7.0,51,0.00,,SKC,0.00,VWS V14.01,2013-04-09 23:40:00,
2013-04-09 19:45:00,74.0,55.3,30.06,SSW,208,2.0,7.0,52,0.00,,SKC,0.00,VWS V14.01,2013-04-09 23:45:00,
2013-04-09 19:50:00,73.7,55.0,30.06,SW,225,2.0,7.0,52,0.00,,SKC,0.00,VWS V14.01,2013-04-09 23:50:00,
2013-04-09 19:55:00,73.4,54.7,30.06,SSW,197,3.0,7.0,52,0.00,,SKC,0.00,VWS V14.01,2013-04-09 23:55:00,
2013-04-09 20:00:00,73.1,55.0,30.06,SSW,199,1.0,7.0,53,0.00,,SKC,0.00,VWS V14.01,2013-04-10 00:00:00,
2013-04-09 20:05:00,72.7,54.6,30.06,East,97,2.0,3.0,53,0.00,,SKC,0.00,VWS V14.01,2013-04-10 00:05:00,
2013-04-09 20:10:00,72.4,54.8,30.07,SW,219,3.0,4.0,54,0.00,,SKC,0.00,VWS V14.01,2013-04-10 00:10:00,
2013-04-09 20:15:00,72.2,54.7,30.07,SSE,166,0.0,4.0,54,0.00,,SKC,0.00,VWS V14.01,2013-04-10 00:15:00,
2013-04-09 20:20:00,71.9,54.4,30.07,ESE,119,1.0,4.0,54,0.00,,SKC,0.00,VWS V14.01,2013-04-10 00:20:00,
2013-04-09 20:25:00,71.7,54.7,30.07,SSW,197,2.0,5.0,55,0.00,,SKC,0.00,VWS V14.01,2013-04-10 00:25:00,
2013-04-09 20:30:00,71.6,54.6,30.07,South,174,2.0,5.0,55,0.00,,SKC,0.00,VWS V14.01,2013-04-10 00:30:00,
2013-04-09 20:35:00,71.5,54.5,30.07,South,176,1.0,6.0,55,0.00,,SKC,0.00,VWS V14.01,2013-04-10 00:35:00,
2013-04-09 20:40:00,71.3,54.8,30.07,NNE,23,2.0,6.0,56,0.00,,SKC,0.00,VWS V14.01,2013-04-10 00:40:00,
2013-04-09 20:45:00,71.3,54.8,30.07,SW,225,3.0,6.0,56,0.00,,SKC,0.00,VWS V14.01,2013-04-10 00:45:00,
2013-04-09 20:50:00,71.2,54.7,30.07,SSW,192,3.0,6.0,56,0.00,,SKC,0.00,VWS V14.01,2013-04-10 00:50:00,
2013-04-09 20:55:00,71.1,54.6,30.07,SSW,207,2.0,6.0,56,0.00,,SKC,0.00,VWS V14.01,2013-04-10 00:55:00,
2013-04-09 21:00:00,71.0,54.5,30.07,SW,217,1.0,6.0,56,0.00,,SKC,0.00,VWS V14.01,2013-04-10 01:00:00,
2013-04-09 21:05:00,70.8,54.8,30.07,South,177,1.0,7.0,57,0.00,,SKC,0.00,VWS V14.01,2013-04-10 01:05:00,
2013-04-09 21:10:00,70.7,54.7,30.07,SSE,155,3.0,7.0,57,0.00,,SKC,0.00,VWS V14.01,2013-04-10 01:10:00,
2013-04-09 21:15:00,70.8,54.8,30.07,SSE,167,3.0,8.0,57,0.00,,SKC,0.00,VWS V14.01,2013-04-10 01:15:00,
2013-04-09 21:20:00,70.8,54.3,30.07,SSW,197,2.0,8.0,56,0.00,,SKC,0.00,VWS V14.01,2013-04-10 01:20:00,
2013-04-09 21:25:00,70.7,54.7,30.07,SE,138,2.0,8.0,57,0.00,,SKC,0.00,VWS V14.01,2013-04-10 01:25:00,
2013-04-09 21:30:00,70.7,54.2,30.07,SSW,195,3.0,8.0,56,0.00,,SKC,0.00,VWS V14.01,2013-04-10 01:30:00,
2013-04-09 21:35:00,70.6,54.6,30.07,South,176,4.0,4.0,57,0.00,,SKC,0.00,VWS V14.01,2013-04-10 01:35:00,
2013-04-09 21:40:00,70.3,54.4,30.07,SW,220,1.0,6.0,57,0.00,,SKC,0.00,VWS V14.01,2013-04-10 01:40:00,
2013-04-09 21:45:00,70.2,54.3,30.07,SSW,205,3.0,6.0,57,0.00,,SKC,0.00,VWS V14.01,2013-04-10 01:45:00,
2013-04-09 21:50:00,70.1,54.2,30.07,SSE,160,2.0,8.0,57,0.00,,SKC,0.00,VWS V14.01,2013-04-10 01:50:00,
2013-04-09 21:55:00,69.9,54.5,30.07,South,186,3.0,8.0,58,0.00,,SKC,0.00,VWS V14.01,2013-04-10 01:55:00,
2013-04-09 22:00:00,69.9,54.5,30.07,SSE,148,3.0,8.0,58,0.00,,SKC,0.00,VWS V14.01,2013-04-10 02:00:00,
2013-04-09 22:05:00,69.7,54.3,30.07,SSW,200,3.0,8.0,58,0.00,,SKC,0.00,VWS V14.01,2013-04-10 02:05:00,
2013-04-09 22:10:00,69.6,54.2,30.08,SSW,200,4.0,8.0,58,0.00,,SKC,0.00,VWS V14.01,2013-04-10 02:10:00,
2013-04-09 22:15:00,69.5,54.1,30.08,SSE,166,2.0,8.0,58,0.00,,SKC,0.00,VWS V14.01,2013-04-10 02:15:00,
2013-04-09 22:20:00,69.3,53.9,30.08,South,180,4.0,8.0,58,0.00,,SKC,0.00,VWS V14.01,2013-04-10 02:20:00,
2013-04-09 22:25:00,69.1,54.2,30.08,South,187,2.0,8.0,59,0.00,,SKC,0.00,VWS V14.01,2013-04-10 02:25:00,
2013-04-09 22:30:00,68.9,54.0,30.08,SSW,207,3.0,8.0,59,0.00,,SKC,0.00,VWS V14.01,2013-04-10 02:30:00,
2013-04-09 22:35:00,68.6,54.2,30.08,ESE,116,1.0,4.0,60,0.00,,SKC,0.00,VWS V14.01,2013-04-10 02:35:00,
2013-04-09 22:40:00,68.3,53.9,30.08,South,187,2.0,4.0,60,0.00,,SKC,0.00,VWS V14.01,2013-04-10 02:40:00,
2013-04-09 22:45:00,68.1,54.2,30.07,SSW,208,1.0,5.0,61,0.00,,SKC,0.00,VWS V14.01,2013-04-10 02:45:00,
2013-04-09 22:50:00,67.9,54.0,30.07,SSW,205,3.0,5.0,61,0.00,,SKC,0.00,VWS V14.01,2013-04-10 02:50:00,
2013-04-09 22:55:00,67.8,53.9,30.08,WSW,242,1.0,5.0,61,0.00,,SKC,0.00,VWS V14.01,2013-04-10 02:55:00,
2013-04-09 23:00:00,67.5,53.6,30.08,South,173,1.0,5.0,61,0.00,,SKC,0.00,VWS V14.01,2013-04-10 03:00:00,
2013-04-09 23:05:00,67.5,53.6,30.08,SSW,192,1.0,4.0,61,0.00,,SKC,0.00,VWS V14.01,2013-04-10 03:05:00,
2013-04-09 23:10:00,67.6,53.7,30.09,South,179,2.0,5.0,61,0.00,,SKC,0.00,VWS V14.01,2013-04-10 03:10:00,
2013-04-09 23:15:00,67.5,53.6,30.08,SSW,194,0.0,5.0,61,0.00,,SKC,0.00,VWS V14.01,2013-04-10 03:15:00,
2013-04-09 23:20:00,67.4,53.5,30.08,South,187,1.0,5.0,61,0.00,,SKC,0.00,VWS V14.01,2013-04-10 03:20:00,
2013-04-09 23:25:00,67.3,53.4,30.08,South,191,1.0,6.0,61,0.00,,SKC,0.00,VWS V14.01,2013-04-10 03:25:00,
2013-04-09 23:30:00,67.2,53.8,30.08,SW,224,2.0,6.0,62,0.00,,SKC,0.00,VWS V14.01,2013-04-10 03:30:00,
2013-04-09 23:35:00,67.1,53.7,30.08,SSW,198,1.0,4.0,62,0.00,,SKC,0.00,VWS V14.01,2013-04-10 03:35:00,
2013-04-09 23:40:00,66.9,53.5,30.08,South,183,2.0,4.0,62,0.00,,SKC,0.00,VWS V14.01,2013-04-10 03:40:00,
2013-04-09 23:45:00,66.9,53.5,30.08,South,188,0.0,4.0,62,0.00,,SKC,0.00,VWS V14.01,2013-04-10 03:45:00,
2013-04-09 23:50:00,66.8,53.4,30.08,South,177,2.0,4.0,62,0.00,,SKC,0.00,VWS V14.01,2013-04-10 03:50:00,
2013-04-09 23:55:00,66.7,53.3,30.08,South,186,2.0,4.0,62,0.00,,SKC,0.00,VWS V14.01,2013-04-10 03:55:00,